FW2442 Weather Reports


time (UTC)temp
C
wind
direction
speed
KPH
gust
KPH
rain 1hr
cm
rain 24hr
cm
rain mn
cm
humidity
%
barometer
mb
20260506081540 21 138 4.8 11.3 0.00 0.00 0.00 47 1014.3
20260506080525 21 144 4.8 11.3 0.00 0.00 0.00 47 1014.2
20260506073521 20 168 1.6 6.4 0.00 0.00 0.00 50 1014.4
20260506072520 20 173 0.0 6.4 0.00 0.00 0.00 50 1014.4
20260506071526 19 179 0.0 1.6 0.00 0.00 0.00 50 1014.4
20260506070545 18 124 1.6 9.7 0.00 0.00 0.00 52 1014.4
20260506061546 17 120 0.0 1.6 0.00 0.00 0.00 55 1014.7
20260506060547 16 120 0.0 1.6 0.00 0.00 0.00 55 1014.8
20260506050521 13 0.0 0.0 0.00 0.00 0.00 61 1014.7
20260506044541 13 0.0 0.0 0.00 0.00 0.00 66 1014.7
20260506043526 12 0.0 0.0 0.00 0.00 0.00 68 1014.8
20260506042527 12 0.0 0.0 0.00 0.00 0.00 68 1014.8
20260506041526 11 0.0 0.0 0.00 0.00 0.00 69 1014.8
20260506040522 11 0.0 0.0 0.00 0.00 0.00 69 1014.7
20260506035530 11 0.0 0.0 0.00 0.00 0.00 69 1014.7
20260506034523 10 0.0 0.0 0.00 0.00 0.00 70 1014.7
20260506033525 10 0.0 0.0 0.00 0.00 0.00 70 1014.6
20260506032521 10 0.0 0.0 0.00 0.00 0.00 71 1014.6
20260506031523 10 0.0 0.0 0.00 0.00 0.00 72 1014.5
20260506030522 9 0.0 0.0 0.00 0.00 0.00 73 1014.4
20260506025522 10 0.0 0.0 0.00 0.00 0.00 73 1014.3
20260506024521 10 0.0 0.0 0.00 0.00 0.00 73 1014.2
20260506023522 10 0.0 0.0 0.00 0.00 0.00 73 1014.2
20260506022523 10 0.0 0.0 0.00 0.00 0.00 72 1014.1
20260506021521 10 0.0 0.0 0.00 0.00 0.00 73 1014.0
20260506020541 10 0.0 0.0 0.00 0.00 0.00 74 1014.0
20260506015601 10 0.0 0.0 0.00 0.00 0.00 74 1013.9
20260506014521 10 110 1.6 3.2 0.00 0.00 0.00 74 1014.0
20260506013521 10 131 0.0 1.6 0.00 0.00 0.00 75 1014.0
20260506012523 10 0.0 0.0 0.00 0.00 0.00 76 1014.0
20260506011525 11 0.0 0.0 0.00 0.00 0.00 75 1014.0
20260506010521 11 0.0 0.0 0.00 0.00 0.00 74 1013.9
20260506005521 11 0.0 0.0 0.00 0.00 0.00 74 1013.9
20260506004601 11 0.0 0.0 0.00 0.00 0.00 74 1013.9
20260506003521 11 131 0.0 1.6 0.00 0.00 0.00 74 1013.7
20260506002525 12 122 0.0 1.6 0.00 0.00 0.00 74 1013.6
20260506001522 12 0.0 0.0 0.00 0.00 0.00 74 1013.7
20260506000522 12 125 0.0 1.6 0.00 0.00 0.00 74 1013.6
20260505235521 12 0.0 0.0 0.00 0.00 0.00 73 1013.6
20260505234520 12 0.0 0.0 0.00 0.00 0.00 72 1013.5
20260505233519 12 0.0 0.0 0.00 0.00 0.00 72 1013.5
20260505232559 12 135 0.0 1.6 0.00 0.00 0.00 71 1013.4
20260505231600 13 135 0.0 1.6 0.00 0.00 0.00 70 1013.5
20260505230540 13 105 0.0 3.2 0.00 0.00 0.00 69 1013.5
20260505225520 13 132 0.0 3.2 0.00 0.00 0.00 68 1013.5
20260505224518 13 115 1.6 3.2 0.00 0.00 0.00 68 1013.5
20260505223517 13 108 0.0 1.6 0.00 0.00 0.00 67 1013.3
20260505222517 14 104 1.6 4.8 0.00 0.00 0.00 66 1013.4
20260505221516 15 133 0.0 1.6 0.00 0.00 0.00 64 1013.4
20260505220536 15 0.0 0.0 0.00 0.00 0.00 62 1013.4
20260505215520 16 0.0 0.0 0.00 0.00 0.00 59 1013.4
20260505214520 16 135 1.6 4.8 0.00 0.00 0.00 58 1013.3
20260505213521 16 154 3.2 6.4 0.00 0.00 0.00 57 1013.3
20260505212520 17 156 3.2 8.0 0.00 0.00 0.00 56 1013.2
20260505211529 17 154 1.6 3.2 0.00 0.00 0.00 54 1013.2
20260505210523 17 172 3.2 6.4 0.00 0.00 0.00 53 1013.3
20260505205520 17 150 1.6 6.4 0.00 0.00 0.00 53 1013.3
20260505204520 18 158 3.2 8.0 0.00 0.00 0.00 52 1013.2
20260505203520 18 172 3.2 11.3 0.00 0.00 0.00 52 1013.2
20260505202520 18 154 3.2 8.0 0.00 0.00 0.00 51 1013.3
20260505201521 18 156 3.2 6.4 0.00 0.00 0.00 51 1013.3
20260505200520 18 156 3.2 9.7 0.00 0.00 0.00 51 1013.3
20260505195540 18 173 3.2 4.8 0.00 0.00 0.00 52 1013.3
20260505194520 18 176 3.2 9.7 0.00 0.00 0.00 52 1013.1
20260505193521 18 197 4.8 9.7 0.00 0.00 0.00 52 1012.9
20260505192520 18 175 3.2 6.4 0.00 0.00 0.00 51 1012.9
20260505191521 19 162 4.8 9.7 0.00 0.00 0.00 50 1012.8
20260505190521 19 172 3.2 9.7 0.00 0.00 0.00 50 1012.9
20260505185520 19 166 3.2 4.8 0.00 0.00 0.00 50 1012.8
20260505184521 20 208 3.2 6.4 0.00 0.00 0.00 48 1012.8
20260505183520 21 180 4.8 8.0 0.00 0.00 0.00 46 1012.6
20260505182522 21 162 3.2 6.4 0.00 0.00 0.00 45 1012.5
20260505181541 21 141 3.2 8.0 0.00 0.00 0.00 43 1012.4
20260505180521 21 174 3.2 9.7 0.00 0.00 0.00 41 1012.0
20260505175519 21 0.0 0.0 0.00 0.00 0.00 39 1012.2
20260505174520 22 0.0 0.0 0.00 0.00 0.00 38 1012.0
20260505173521 22 117 0.0 3.2 0.00 0.00 0.00 37 1012.1
20260505172521 23 0.0 0.0 0.00 0.00 0.00 36 1012.0
20260505171541 23 0.0 0.0 0.00 0.00 0.00 35 1011.9
20260505170520 24 107 1.6 3.2 0.00 0.00 0.00 35 1011.9
20260505165521 25 109 1.6 1.6 0.00 0.00 0.00 34 1012.0
20260505164522 25 126 1.6 1.6 0.00 0.00 0.00 34 1011.9
20260505163542 25 115 1.6 1.6 0.00 0.00 0.00 34 1011.9
20260505162520 25 107 1.6 3.2 0.00 0.00 0.00 33 1011.9
20260505161541 25 108 1.6 1.6 0.00 0.00 0.00 32 1011.9
20260505160521 26 112 1.6 1.6 0.00 0.00 0.00 32 1011.9
20260505152521 27 125 1.6 3.2 0.00 0.00 0.00 28 1012.0
20260505151519 27 122 3.2 6.4 0.00 0.00 0.00 28 1012.1
20260505150520 27 117 1.6 4.8 0.00 0.00 0.00 28 1012.1
20260505140601 28 230 3.2 6.4 0.00 0.00 0.00 30 1012.5
20260505124521 27 50 1.6 4.8 0.00 0.00 0.00 31 1013.1
20260505123520 27 105 1.6 6.4 0.00 0.00 0.00 31 1013.2
20260505122520 27 104 1.6 4.8 0.00 0.00 0.00 31 1013.3
20260505121520 27 115 1.6 3.2 0.00 0.00 0.00 31 1013.4
20260505120521 27 136 1.6 6.4 0.00 0.00 0.00 30 1013.4
20260505115521 27 53 1.6 3.2 0.00 0.00 0.00 31 1013.5
20260505114522 27 69 1.6 4.8 0.00 0.00 0.00 31 1013.6
20260505113522 27 118 1.6 4.8 0.00 0.00 0.00 33 1013.7
20260505112520 26 91 1.6 3.2 0.00 0.00 0.00 33 1013.8
20260505111522 27 113 1.6 4.8 0.00 0.00 0.00 32 1013.9
20260505110520 27 184 1.6 3.2 0.00 0.00 0.00 33 1013.9
20260505101521 26 98 1.6 1.6 0.00 0.00 0.00 33 1014.4
20260505100521 25 156 3.2 6.4 0.00 0.00 0.00 34 1014.6
20260505095520 25 231 1.6 4.8 0.00 0.00 0.00 36 1014.7
20260505094521 25 191 4.8 12.9 0.00 0.00 0.00 36 1014.8
20260505093520 25 121 1.6 4.8 0.00 0.00 0.00 36 1014.9
20260505092522 25 150 1.6 4.8 0.00 0.00 0.00 38 1015.0
20260505091521 25 108 1.6 3.2 0.00 0.00 0.00 39 1015.0
20260505090521 25 165 1.6 3.2 0.00 0.00 0.00 40 1015.1
20260505085521 24 119 1.6 4.8 0.00 0.00 0.00 42 1015.2
20260505084520 23 140 1.6 3.2 0.00 0.00 0.00 44 1015.3
20260505083519 23 149 3.2 8.0 0.00 0.00 0.00 42 1015.4
20260505082520 23 203 3.2 8.0 0.00 0.00 0.00 45 1015.5